Baku, Azerbaijan

4:59 PM +04 on November 14, 2018 (GMT +0400)
Bina

Weather History for UBBB - February, 2018

Change the Weather History Date:

Saturday, February 17, 2018

  Actual Average (WUND) Record (WUND)
Temperature  
Mean Temperature 47 °F -  
Max Temperature 52 °F - - (-1)
Min Temperature 42 °F - - (-1)
Degree Days  
Heating Degree Days 18    
Moisture  
Dew Point 44 °F    
Average Humidity 89    
Maximum Humidity 100    
Minimum Humidity 68    
Precipitation  
Precipitation 0.00 in - - ()
Sea Level Pressure  
Sea Level Pressure 30.25 in    
Wind  
Wind Speed 8 mph ()    
Max Wind Speed 16 mph    
Max Gust Speed -    
Visibility 5.0 miles    
Events      
Averages and records for this station are not official NWS values.
T = Trace of Precipitation, MM = Missing Value Source: Averaged Metar Reports

Daily Weather History Graph

Daily Weather History Graph

Search for Another Location

Airport or City:

Astronomy

Feb. 17, 2018 Rise Set
Actual Time 7:31 AM +04 6:16 PM +04
Civil Twilight 7:03 AM +04 6:44 PM +04
Nautical Twilight 6:31 AM +04 7:16 PM +04
Astronomical Twilight 5:59 AM +04 7:48 PM +04
Moon 8:24 AM +04 (2/17) 7:50 PM +04 (2/17)
Length of Visible Light 11h 41m
Length of Day
10h 45m
New Moon, 2% of the Moon is Illuminated
Feb 17
New Moon
Feb 23
First Quarter
Mar 2
Full
Mar 9
Last Quarter
Mar 17
New

Hourly Weather History & Observations

Time (+04) Temp. Windchill Dew Point Humidity Pressure Visibility Wind Dir Wind Speed Gust Speed Precip Events Conditions
12:00 AM 44.6 °F 40.7 °F 44.6 °F 100% 30.39 in 3.1 mi SSE 6.9 mph - N/A   Overcast
12:30 AM 44.6 °F 40.7 °F 44.6 °F 100% 30.36 in 3.1 mi SE 6.9 mph - N/A   Overcast
1:00 AM 45 °F - 43 °F 91% 30.37 in 6 mi ESE 4.5 mph - -   Overcast
1:00 AM 44.6 °F 40.2 °F 44.6 °F 100% 30.36 in 4.3 mi SE 8.1 mph - N/A   Overcast
1:30 AM 44.6 °F 40.7 °F 44.6 °F 100% 30.36 in 4.3 mi SSE 6.9 mph - N/A   Overcast
2:00 AM 46.4 °F 43.5 °F 44.6 °F 93% 30.36 in 3.1 mi SSE 5.8 mph - N/A   Overcast
2:30 AM 46.4 °F 42.4 °F 44.6 °F 93% 30.33 in 3.1 mi SSE 8.1 mph - N/A   Overcast
3:00 AM 46.4 °F 42.4 °F 44.6 °F 93% 30.33 in 3.1 mi SE 8.1 mph - N/A   Overcast
3:30 AM 46.4 °F 42.9 °F 44.6 °F 93% 30.33 in 3.1 mi SSE 6.9 mph - N/A   Overcast
4:00 AM 46 °F - 44 °F 88% 30.33 in 6 mi ESE 6.7 mph - -   Overcast
4:00 AM 44.6 °F 40.7 °F 44.6 °F 100% 30.30 in 3.1 mi SSE 6.9 mph - N/A   Overcast
4:30 AM 44.6 °F 40.2 °F 44.6 °F 100% 30.33 in 3.1 mi SSE 8.1 mph - N/A   Overcast
5:00 AM 44.6 °F 40.2 °F 42.8 °F 93% 30.30 in 3.1 mi SSE 8.1 mph - N/A   Mostly Cloudy
5:30 AM 44.6 °F 40.2 °F 42.8 °F 93% 30.30 in 3.1 mi SSE 8.1 mph - N/A   Mostly Cloudy
6:00 AM 44.6 °F 40.7 °F 42.8 °F 93% 30.30 in 3.1 mi SSE 6.9 mph - N/A   Mostly Cloudy
6:30 AM 44.6 °F 40.7 °F 42.8 °F 93% 30.30 in 3.1 mi SSE 6.9 mph - N/A   Mostly Cloudy
7:00 AM 44 °F - 42 °F 92% 30.31 in 6 mi Calm Calm - -   Overcast
7:00 AM 44.6 °F 41.4 °F 42.8 °F 93% 30.30 in 3.1 mi SE 5.8 mph - N/A   Mostly Cloudy
7:30 AM 44.6 °F 41.4 °F 44.6 °F 100% 30.30 in 2.5 mi SSE 5.8 mph - N/A   Overcast
8:00 AM 44.6 °F 42.2 °F 44.6 °F 100% 30.30 in 2.5 mi SSE 4.6 mph - N/A   Overcast
8:30 AM 46.4 °F 43.5 °F 44.6 °F 93% 30.30 in 3.1 mi South 5.8 mph - N/A   Overcast
9:00 AM 46.4 °F 42.4 °F 44.6 °F 93% 30.30 in 6.2 mi South 8.1 mph - N/A   Overcast
9:30 AM 46.4 °F 41.1 °F 44.6 °F 93% 30.30 in 6.2 mi SSE 11.5 mph - N/A   Overcast
10:00 AM 47 °F - 44 °F 83% 30.30 in 6 mi SE 6.7 mph - -   Overcast
10:00 AM 46.4 °F 41.1 °F 44.6 °F 93% 30.30 in 6.2 mi South 11.5 mph - N/A   Overcast
10:30 AM 48.2 °F - 44.6 °F 87% 30.27 in 6.2 mi South 10.4 mph - N/A   Overcast
11:00 AM 48.2 °F - 42.8 °F 82% 30.27 in 6.2 mi South 11.5 mph - N/A   Overcast
11:30 AM 48.2 °F - 44.6 °F 87% 30.27 in 6.2 mi South 13.8 mph - N/A   Overcast
12:00 PM 50.0 °F - 42.8 °F 76% 30.24 in 6.2 mi South 13.8 mph - N/A   Mostly Cloudy
12:30 PM 50.0 °F - 44.6 °F 82% 30.24 in 6.2 mi South 13.8 mph - N/A   Mostly Cloudy
1:00 PM 50 °F - 44 °F 71% 30.23 in 6 mi SE 13.4 mph - -   Overcast
1:00 PM 50.0 °F - 44.6 °F 82% 30.21 in 6.2 mi South 15.0 mph - N/A   Mostly Cloudy
1:30 PM 50.0 °F - 44.6 °F 82% 30.21 in 6.2 mi South 15.0 mph - N/A   Mostly Cloudy
2:00 PM 50.0 °F - 44.6 °F 82% 30.21 in 6.2 mi South 16.1 mph - N/A   Mostly Cloudy
2:30 PM 50.0 °F - 44.6 °F 82% 30.18 in 6.2 mi South 16.1 mph - N/A   Mostly Cloudy
3:00 PM 50.0 °F - 42.8 °F 76% 30.18 in 6.2 mi South 16.1 mph - N/A   Mostly Cloudy
3:30 PM 50.0 °F - 44.6 °F 82% 30.18 in 6.2 mi South 16.1 mph - N/A   Scattered Clouds
4:00 PM 50 °F - 43 °F 68% 30.19 in 6 mi SE 15.7 mph - -   Mostly Cloudy
4:00 PM 50.0 °F - 44.6 °F 82% 30.18 in 6.2 mi South 16.1 mph - N/A   Mostly Cloudy
4:30 PM 48.2 °F - 42.8 °F 82% 30.18 in 6.2 mi SSE 15.0 mph - N/A   Mostly Cloudy
5:00 PM 48.2 °F - 42.8 °F 82% 30.18 in 6.2 mi SSE 13.8 mph - N/A   Mostly Cloudy
5:30 PM 48.2 °F - 42.8 °F 82% 30.18 in 6.2 mi SSE 13.8 mph - N/A   Mostly Cloudy
6:00 PM 46.4 °F 40.4 °F 42.8 °F 87% 30.18 in 6.2 mi SSE 13.8 mph - N/A   Mostly Cloudy
6:30 PM 46.4 °F 41.5 °F 42.8 °F 87% 30.18 in 6.2 mi SSE 10.4 mph - N/A   Mostly Cloudy
7:00 PM 45 °F - 41 °F 82% 30.20 in 6 mi SE 4.5 mph - -   Mostly Cloudy
7:00 PM 44.6 °F 39.7 °F 42.8 °F 93% 30.18 in 6.2 mi SE 9.2 mph - N/A   Mostly Cloudy
7:30 PM 44.6 °F 39.2 °F 41.0 °F 87% 30.18 in - SSE 10.4 mph - N/A   Clear
8:00 PM 42.8 °F 37.0 °F 41.0 °F 93% 30.18 in - SE 10.4 mph - N/A   Clear
8:30 PM 44.6 °F 39.2 °F 42.8 °F 93% 30.18 in - SSE 10.4 mph - N/A   Clear
9:00 PM 44.6 °F 38.8 °F 42.8 °F 93% 30.18 in - SE 11.5 mph - N/A   Clear
9:30 PM 46.4 °F 41.5 °F 42.8 °F 87% 30.18 in - SSE 10.4 mph - N/A   Clear
10:00 PM 46 °F - 42 °F 80% 30.18 in 6 mi SE 4.5 mph - -   Mostly Cloudy
10:00 PM 46.4 °F 41.5 °F 42.8 °F 87% 30.18 in - SE 10.4 mph - N/A   Clear
10:30 PM 46.4 °F 41.5 °F 42.8 °F 87% 30.18 in - SSE 10.4 mph - N/A   Clear
11:00 PM 46.4 °F 41.5 °F 42.8 °F 87% 30.15 in - SE 10.4 mph - N/A   Clear
11:30 PM 46.4 °F 41.5 °F 42.8 °F 87% 30.15 in - SE 10.4 mph - N/A   Clear